This is the latest recevied weather packets stored in our database for station/object K7AEL. If no packets are shown the sender has not sent any weather packets the latest 10 day(s).
| Time | Temp. | Humidity | Pressure | Rain* | Wind** | Luminosity | Snow |
|---|---|---|---|---|---|---|---|
| 1777649433 | 21.11° C | 47% | 1014.3 hPa | 0 mm | - | 343 W/m² | - |
| 1777649130 | 20.56° C | 49% | 1014.2 hPa | 0 mm | - | 334 W/m² | - |
| 1777648827 | 20.56° C | 49% | 1014.2 hPa | 0 mm | - | 315 W/m² | - |
| 1777648524 | 20° C | 50% | 1014.2 hPa | 0 mm | - | 296 W/m² | - |
| 1777648220 | 20° C | 51% | 1014.2 hPa | 0 mm | - | 285 W/m² | - |
| 1777647910 | 19.44° C | 52% | 1014.2 hPa | 0 mm | - | 276 W/m² | - |
| 1777647607 | 19.44° C | 53% | 1014 hPa | 0 mm | - | 262 W/m² | - |
| 1777647303 | 18.89° C | 54% | 1014.2 hPa | 0 mm | - | 43 W/m² | - |
| 1777647001 | 18.89° C | 54% | 1014.1 hPa | 0 mm | - | 41 W/m² | - |
| 1777646697 | 18.89° C | 54% | 1014 hPa | 0 mm | - | 40 W/m² | - |
| 1777646393 | 18.33° C | 56% | 1013.8 hPa | 0 mm | - | 38 W/m² | - |
| 1777646089 | 18.33° C | 56% | 1013.8 hPa | 0 mm | - | 37 W/m² | - |
| 1777645786 | 18.33° C | 57% | 1014 hPa | 0 mm | - | 37 W/m² | - |
| 1777645484 | 17.78° C | 58% | 1013.9 hPa | 0 mm | - | 36 W/m² | - |
| 1777645179 | 17.78° C | 59% | 1014 hPa | 0 mm | - | 35 W/m² | - |
| 1777644875 | 17.22° C | 60% | 1014.1 hPa | 0 mm | - | 34 W/m² | - |
| 1777644573 | 17.22° C | 61% | 1014 hPa | 0 mm | - | 33 W/m² | - |
| 1777644269 | 17.22° C | 61% | 1013.9 hPa | 0 mm | - | 32 W/m² | - |
| 1777643965 | 16.67° C | 62% | 1013.8 hPa | 0 mm | - | 31 W/m² | - |
| 1777643662 | 16.67° C | 63% | 1013.8 hPa | 0 mm | - | 30 W/m² | - |
| 1777643360 | 16.11° C | 65% | 1013.9 hPa | 0 mm | - | 29 W/m² | - |
| 1777643056 | 16.11° C | 67% | 1013.7 hPa | 0 mm | - | 27 W/m² | - |
| 1777642753 | 15.56° C | 68% | 1013.5 hPa | 0 mm | - | 26 W/m² | - |
| 1777642450 | 15.56° C | 69% | 1013.5 hPa | 0 mm | - | 25 W/m² | - |
| 1777642145 | 15.56° C | 70% | 1013.6 hPa | 0 mm | - | 23 W/m² | - |
* Rain latest hour (hover to see other rain measurements)
** Current wind speed in m/s (hover to see current wind gust speed)